Probability
39 32 48 68 65 65 55 52 58 61 55 61 58 45 45 45 35 19 26 23 19 13 13 13 16 10 3 3 3 3 3 3 0 0 0 0 0 0 0 0 3 0 3
32 32 52 52 61 71 65 61 52 58 58 52 45 48 45 42 29 29 19 16 19 16 13 13 16 13 6 3 3 3 3 0 0 0 0 0 0 0 0 3 3 3 3
26 29 35 48 48 52 52 55 55 55 52 42 39 35 42 45 35 32 19 16 13 16 13 13 10 10 6 6 6 0 0 0 0 0 0 0 0 0 0 0 3 3 0
26 29 35 48 45 45 45 45 48 52 42 42 26 23 29 35 32 26 29 23 23 13 19 13 19 19 16 16 6 3 0 0 0 0 0 0 0 0 0 0 0 0 0
29 29 35 48 48 45 45 48 48 48 42 35 32 35 32 29 26 23 29 26 23 23 19 16 19 19 19 13 10 3 3 6 0 0 0 0 0 3 0 0 0 0 0
29 26 45 48 48 45 45 48 48 45 45 42 35 35 29 23 23 23 26 32 29 23 23 19 16 23 19 10 6 3 10 10 0 0 0 0 0 3 6 0 0 0 0
26 32 32 42 42 42 42 42 45 45 42 39 35 35 35 29 29 29 35 29 23 23 23 23 23 16 16 13 6 3 6 3 0 0 0 0 0 6 6 0 0 0 0
23 19 23 32 35 35 35 35 39 39 32 32 35 39 35 32 26 26 32 32 23 19 19 19 16 16 23 16 13 10 3 0 0 0 0 0 0 6 3 0 0 0 0
23 19 19 19 23 29 32 32 35 35 32 35 35 35 29 32 29 23 29 32 26 26 23 29 23 29 26 26 19 16 0 0 0 0 0 0 0 10 6 3 0 0 0
10 13 16 19 16 19 19 23 26 26 29 32 26 23 23 26 26 19 16 23 26 32 29 23 23 26 26 19 23 0 0 0 0 0 0 0 3 13 6 6 0 0 0
6 6 6 10 13 10 10 6 10 10 13 13 6 6 6 13 10 10 6 6 13 16 23 26 23 19 10 3 0 0 0 0 0 0 0 0 3 6 10 10 3 0 0
6 6 6 6 6 10 6 6 6 10 6 6 10 3 3 10 10 0 0 0 6 10 10 10 13 10 0 0 0 0 0 0 0 0 0 0 13 13 6 13 0 0 6
6 6 6 6 6 6 6 6 6 3 3 6 10 6 6 6 6 0 0 0 0 0 0 3 0 0 0 0 0 0 0 0 0 0 0 0 3 3 6 6 3 0 0
6 6 6 6 6 6 6 6 6 3 3 3 3 3 3 6 3 3 0 0 0 0 0 0 0 0 0 0 0 0 0 0 0 0 0 0 0 3 3 3 3 3 3
3 3 6 6 6 3 3 3 3 3 3 3 3 3 3 3 6 0 0 0 0 0 0 0 0 0 0 0 0 0 0 0 0 0 0 0 0 0 3 3 3 3 0
0 0 0 3 6 3 3 3 3 3 3 3 3 0 0 3 3 0 0 0 0 0 0 0 0 0 0 0 0 0 0 0 0 0 0 0 0 0 0 3 0 0 0
0 0 0 0 0 3 0 3 3 3 3 3 3 0 0 3 0 0 0 0 0 0 0 0 0 0 0 0 0 0 0 0 0 0 0 0 0 0 0 0 0 0 0
0 0 0 0 0 3 3 0 0 0 0 0 3 3 3 3 3 0 0 0 0 0 0 0 0 0 0 0 0 0 0 0 0 0 0 0 0 0 0 0 0 0 0
0 0 0 0 0 0 0 0 0 0 0 0 0 0 0 0 3 3 0 0 0 0 0 0 0 0 0 0 0 0 0 0 0 0 0 0 0 0 0 0 0 0 0
0 0 0 0 0 0 0 0 0 0 0 0 0 0 0 0 0 0 0 0 0 0 0 0 0 0 0 0 0 0 0 0 0 0 0 0 0 0 0 0 0 0 0
0 0 0 0 0 0 0 0 0 0 0 0 0 0 0 0 0 0 0 0 0 0 0 0 0 0 0 0 0 0 0 0 0 0 0 0 0 0 0 0 0 0 0
0 0 0 0 0 0 0 0 0 0 0 0 0 0 0 0 0 0 0 0 0 0 0 0 0 0 0 0 0 0 0 0 0 0 0 0 0 0 0 0 0 0 0
0 0 0 0 0 0 0 0 0 0 0 0 0 0 0 0 0 0 0 0 0 0 0 0 0 0 0 0 0 0 0 0 0 0 0 0 0 0 0 0 0 0 0
0 0 0 0 0 0 0 0 0 0 0 0 0 0 0 0 0 0 0 0 0 0 0 0 0 0 0 0 0 0 0 0 0 0 0 0 0 0 0 0 0 0 0
0 0 0 0 0 0 0 0 0 0 0 0 0 0 0 0 0 0 0 0 0 0 0 0 0 0 0 0 0 0 0 0 0 0 0 0 0 0 0 0 0 0 0
0 0 0 0 0 0 0 0 0 0 0 0 0 0 0 0 0 0 0 0 0 0 0 0 0 0 0 0 0 0 0 0 0 0 0 0 0 0 0 0 0 0 0
Height
5867 5868 5869 5870 5871 5872 5873 5874 5874 5875 5875 5875 5876 5876 5876 5876 5876 5876 5876 5876 5876 5876 5876 5875 5875 5875 5875 5875 5875 5875 5875 5875 5875 5875 5875 5875 5875 5875 5875 5875 5874 5874 5874
5865 5866 5867 5868 5869 5870 5871 5872 5872 5873 5873 5873 5874 5874 5874 5874 5874 5874 5874 5874 5874 5874 5874 5874 5874 5874 5873 5873 5873 5873 5873 5873 5873 5873 5873 5873 5873 5873 5873 5873 5873 5872 5872
5863 5864 5865 5866 5867 5868 5868 5869 5870 5870 5871 5871 5871 5872 5872 5872 5872 5872 5872 5872 5872 5872 5872 5872 5871 5871 5871 5871 5871 5871 5871 5871 5871 5871 5871 5871 5871 5871 5870 5870 5870 5870 5870
5860 5861 5862 5863 5864 5865 5866 5866 5867 5868 5868 5868 5869 5869 5869 5869 5869 5869 5869 5869 5869 5869 5869 5869 5869 5869 5869 5869 5869 5868 5868 5868 5868 5868 5868 5868 5868 5868 5868 5868 5868 5867 5867
5857 5858 5859 5860 5861 5862 5863 5864 5864 5865 5865 5866 5866 5866 5866 5866 5867 5867 5866 5866 5866 5866 5866 5866 5866 5866 5866 5866 5865 5865 5865 5865 5865 5865 5865 5865 5865 5865 5865 5865 5864 5864 5864
5853 5855 5856 5857 5858 5859 5860 5860 5861 5862 5862 5863 5863 5863 5863 5863 5863 5863 5863 5863 5863 5863 5863 5863 5863 5862 5862 5862 5862 5862 5862 5862 5862 5862 5862 5862 5861 5861 5861 5861 5861 5861 5861
5849 5851 5852 5854 5855 5856 5856 5857 5858 5858 5859 5859 5859 5860 5860 5860 5860 5860 5860 5860 5859 5859 5859 5859 5859 5858 5858 5858 5858 5858 5858 5858 5858 5858 5858 5858 5857 5857 5857 5857 5857 5857 5857
5845 5847 5848 5850 5851 5852 5853 5854 5854 5855 5855 5856 5856 5856 5856 5856 5856 5856 5856 5856 5855 5855 5855 5855 5855 5854 5854 5854 5854 5854 5853 5853 5853 5853 5853 5853 5853 5853 5852 5852 5852 5852 5852
5841 5843 5844 5846 5847 5848 5849 5850 5850 5851 5851 5852 5852 5852 5852 5852 5852 5852 5852 5851 5851 5851 5850 5850 5850 5850 5849 5849 5849 5849 5848 5848 5848 5848 5848 5848 5848 5848 5847 5847 5847 5847 5847
5836 5838 5840 5841 5843 5844 5845 5846 5846 5847 5847 5848 5848 5848 5848 5848 5847 5847 5847 5846 5846 5846 5845 5845 5845 5844 5844 5844 5843 5843 5843 5843 5842 5842 5842 5842 5842 5842 5842 5842 5842 5842 5842
5832 5834 5835 5837 5838 5839 5840 5841 5842 5842 5843 5843 5843 5843 5843 5843 5843 5842 5842 5841 5840 5840 5839 5839 5839 5838 5838 5838 5837 5837 5836 5836 5836 5836 5836 5836 5835 5835 5835 5835 5835 5835 5835
5827 5829 5830 5832 5833 5835 5836 5836 5837 5837 5838 5838 5838 5838 5838 5838 5837 5837 5836 5835 5834 5834 5833 5833 5833 5832 5832 5831 5831 5830 5830 5829 5829 5829 5829 5829 5828 5828 5828 5828 5828 5829 5829
5822 5824 5825 5827 5828 5829 5830 5831 5832 5832 5832 5833 5833 5833 5832 5832 5832 5831 5830 5829 5828 5827 5826 5826 5826 5825 5825 5824 5823 5823 5822 5822 5822 5821 5821 5821 5821 5821 5821 5821 5821 5821 5821
5816 5818 5820 5821 5823 5824 5825 5826 5826 5826 5827 5827 5827 5827 5827 5826 5826 5825 5824 5823 5822 5821 5820 5819 5819 5818 5818 5817 5816 5816 5815 5814 5814 5814 5813 5813 5813 5813 5813 5813 5813 5813 5813
5811 5813 5815 5816 5817 5818 5819 5820 5820 5821 5821 5821 5821 5821 5821 5820 5820 5819 5818 5816 5815 5814 5813 5812 5811 5811 5810 5809 5809 5808 5807 5806 5806 5805 5805 5804 5804 5804 5804 5804 5804 5804 5804
5805 5807 5809 5810 5811 5812 5813 5814 5814 5814 5814 5815 5814 5814 5814 5814 5813 5812 5811 5810 5808 5807 5806 5805 5804 5803 5802 5801 5801 5800 5799 5798 5797 5796 5795 5795 5795 5795 5795 5794 5795 5795 5795
5799 5801 5803 5804 5805 5806 5807 5808 5808 5808 5808 5808 5808 5808 5808 5807 5806 5805 5804 5803 5801 5800 5799 5798 5796 5795 5794 5793 5792 5791 5790 5789 5788 5787 5786 5785 5785 5785 5785 5785 5785 5784 5784
5793 5795 5797 5798 5799 5800 5800 5801 5801 5801 5801 5801 5801 5801 5801 5800 5799 5798 5797 5796 5794 5793 5791 5790 5788 5787 5786 5785 5783 5782 5781 5779 5778 5777 5776 5775 5775 5775 5775 5775 5774 5774 5774
5787 5789 5790 5792 5792 5793 5794 5794 5795 5795 5795 5795 5794 5794 5794 5793 5792 5791 5790 5788 5786 5785 5783 5782 5780 5778 5777 5776 5775 5773 5772 5770 5769 5767 5766 5765 5764 5764 5764 5764 5764 5763 5763
5780 5782 5784 5785 5786 5786 5787 5788 5788 5788 5788 5788 5787 5787 5786 5786 5785 5784 5783 5781 5779 5778 5776 5774 5772 5771 5769 5768 5766 5764 5762 5761 5759 5757 5756 5755 5755 5754 5753 5753 5753 5753 5753
5774 5776 5777 5778 5779 5780 5780 5781 5781 5781 5781 5781 5780 5780 5779 5778 5777 5776 5775 5773 5772 5770 5768 5766 5765 5763 5761 5759 5758 5756 5753 5751 5749 5747 5746 5745 5744 5744 5743 5743 5743 5743 5742
5768 5769 5770 5771 5772 5773 5773 5773 5773 5773 5773 5773 5772 5772 5771 5770 5769 5768 5767 5765 5764 5762 5760 5758 5757 5755 5752 5750 5749 5746 5744 5742 5740 5738 5736 5735 5734 5733 5733 5732 5732 5731 5731
5762 5763 5763 5764 5765 5765 5765 5765 5765 5765 5765 5765 5765 5764 5763 5762 5761 5760 5759 5757 5756 5754 5752 5750 5748 5746 5744 5742 5739 5737 5735 5733 5731 5729 5727 5725 5724 5722 5722 5721 5720 5720 5720
5755 5756 5756 5757 5757 5757 5757 5757 5757 5757 5757 5757 5757 5756 5755 5754 5753 5752 5750 5749 5747 5745 5743 5741 5739 5737 5735 5733 5730 5728 5725 5723 5722 5720 5718 5716 5714 5713 5711 5711 5710 5709 5709
5748 5749 5749 5750 5750 5750 5749 5749 5749 5749 5749 5749 5748 5747 5746 5745 5744 5743 5742 5740 5738 5737 5735 5733 5731 5729 5726 5724 5722 5719 5716 5714 5712 5710 5709 5707 5705 5703 5702 5701 5700 5699 5697
5741 5742 5742 5742 5742 5742 5741 5741 5741 5741 5740 5740 5740 5739 5738 5737 5736 5734 5733 5731 5729 5728 5726 5724 5722 5720 5718 5715 5713 5710 5708 5705 5703 5701 5699 5698 5696 5693 5691 5690 5689 5688 5686
Wind_Speed
14 13 13 13 13 13 12 12 12 12 12 12 11 11 11 10 10 10 10 10 10 10 10 10 10 10 10 10 10 10 10 10 11 11 11 11 11 11 11 10 10 10 10
15 14 14 14 14 14 14 14 13 13 13 13 13 13 13 13 13 13 12 12 12 12 12 12 12 12 12 12 12 12 12 12 12 12 12 12 13 13 12 12 12 12 12
16 15 15 15 15 16 16 16 15 15 15 15 14 14 14 15 15 14 14 14 14 14 14 14 14 14 14 14 14 14 14 14 14 14 14 14 14 14 14 14 14 14 14
17 17 17 17 17 17 17 17 17 17 17 16 16 16 16 16 16 16 16 16 16 16 17 17 17 17 17 17 16 16 16 16 16 16 16 16 16 16 16 16 16 16 16
19 19 18 18 18 18 18 18 18 18 18 18 18 17 17 17 17 17 17 18 18 18 18 18 18 18 18 18 19 18 18 18 18 18 18 18 18 18 18 18 18 18 18
21 20 20 19 19 19 19 19 18 18 18 19 18 18 18 19 19 19 19 19 20 20 20 20 20 20 20 20 20 20 20 20 19 19 20 20 20 20 20 20 20 20 19
22 22 21 21 20 20 19 19 19 19 19 19 20 20 20 20 20 20 21 21 21 21 21 21 21 21 21 21 21 21 22 22 22 22 22 21 21 22 22 21 21 21 21
24 23 22 22 21 21 21 21 20 20 20 21 21 21 21 21 21 21 21 22 22 22 22 22 22 23 23 23 23 23 23 23 23 24 24 24 24 24 23 23 23 23 23
25 24 24 23 22 22 22 22 22 22 22 22 22 22 21 22 22 23 23 23 23 24 24 24 24 25 24 25 25 25 26 26 26 26 26 26 26 26 25 25 25 25 25
26 26 25 24 24 24 23 24 24 24 23 23 23 23 23 23 24 24 24 25 25 25 25 26 26 26 26 27 27 28 28 28 29 29 29 28 28 28 28 28 28 27 27
27 26 26 26 25 25 25 25 25 25 25 25 25 25 25 25 25 25 26 26 27 27 27 28 28 28 29 29 30 30 31 31 31 31 31 31 31 31 31 30 30 30 30
28 27 27 27 27 27 27 26 26 26 26 26 26 26 26 26 26 27 27 28 28 29 29 30 30 31 31 31 32 33 33 33 34 33 33 33 33 33 33 33 33 33 32
29 29 28 28 28 28 28 27 27 27 27 27 27 27 27 27 28 28 29 29 30 31 31 32 32 32 32 33 33 33 33 34 34 34 35 34 34 34 34 35 35 35 35
30 30 29 29 29 29 29 29 28 28 28 28 28 28 28 29 29 29 30 31 31 32 32 33 33 33 33 33 33 33 34 34 35 35 36 36 36 36 37 37 38 38 37
30 30 30 30 30 30 30 30 30 29 29 29 29 29 29 30 31 31 31 31 32 32 33 33 33 34 34 35 35 35 35 35 36 37 38 38 38 38 38 38 39 39 39
31 31 31 30 30 31 31 31 31 31 30 30 30 30 31 31 31 31 31 32 32 32 33 34 34 35 36 36 37 37 37 37 37 38 38 39 40 40 40 39 39 39 40
31 31 31 31 31 31 31 32 32 32 31 31 30 31 31 31 32 32 32 33 33 33 34 35 36 36 37 38 38 39 39 39 40 40 40 40 40 41 41 40 40 39 39
32 32 32 31 32 32 32 32 32 31 31 31 32 32 31 32 32 33 33 34 34 35 35 36 37 37 38 38 38 39 40 40 40 40 40 40 41 40 41 41 42 41 41
31 31 32 31 31 31 31 31 31 32 32 33 33 32 33 33 33 34 34 35 35 35 35 36 36 37 37 38 38 39 40 40 41 41 41 41 41 41 41 42 42 42 42
32 31 31 32 31 31 31 32 32 32 33 33 33 33 34 34 35 35 35 35 35 35 36 36 36 37 37 38 39 39 40 41 42 42 41 41 41 42 42 42 42 42 43
31 31 30 31 31 32 32 33 33 33 33 34 34 35 35 35 35 35 35 35 36 36 35 35 36 36 37 37 38 39 40 40 40 40 40 41 41 42 42 43 43 43 43
31 32 31 31 32 33 33 34 34 34 35 35 35 35 35 35 35 35 35 35 35 35 35 35 36 36 37 37 37 38 38 38 38 39 39 39 40 40 41 42 43 43 43
31 32 32 32 32 33 34 34 34 35 35 35 35 35 35 35 35 35 35 35 35 36 36 37 37 37 37 37 37 37 37 37 37 37 37 37 37 37 39 40 42 42 42
31 31 32 33 33 34 34 35 35 35 35 35 35 35 35 35 35 36 36 36 37 37 37 37 37 37 37 37 37 37 37 37 36 36 37 38 39 39 37 37 39 40 41
31 32 33 33 34 35 35 35 35 36 36 36 36 36 36 36 36 37 37 37 37 37 37 37 37 37 37 37 36 36 36 36 36 36 36 38 39 40 40 39 39 40 41
31 33 34 35 36 36 35 35 36 37 37 38 38 38 38 37 38 38 38 37 37 37 36 36 36 37 37 36 36 36 36 37 37 37 37 37 38 39 40 40 40 40 40
Wind_Direction
242 245 247 251 254 257 258 259 261 264 266 268 270 272 274 277 278 278 280 281 282 282 283 281 280 281 282 281 281 280 280 279 278 276 275 275 276 276 276 277 276 275 276
244 247 250 252 256 259 261 262 264 266 268 269 270 272 274 276 277 277 277 278 279 281 282 282 282 281 282 282 281 280 281 280 279 278 277 277 276 276 275 275 275 275 275
246 248 251 255 258 260 261 263 264 266 268 270 271 272 273 275 276 276 277 277 278 279 280 281 281 282 282 281 280 280 280 280 280 279 278 278 277 277 276 276 275 274 274
248 250 253 256 258 260 262 264 264 266 267 269 270 272 274 275 276 276 276 277 279 281 281 280 280 280 280 280 281 280 280 279 279 279 278 277 277 276 276 277 277 275 274
248 251 253 256 259 260 262 263 265 266 266 268 270 272 273 275 277 277 278 278 280 281 282 282 281 281 281 280 280 279 280 279 277 277 278 277 277 276 276 276 276 276 275
248 251 254 256 259 260 261 263 264 266 266 268 270 272 273 275 276 278 279 280 280 281 281 281 281 281 281 281 281 280 279 279 279 279 278 278 278 278 277 276 276 275 275
249 251 254 256 258 259 261 263 264 266 267 268 270 271 274 276 277 278 280 280 280 280 281 281 281 280 280 280 281 281 282 281 280 280 279 279 279 278 278 277 276 275 275
249 251 253 255 257 258 260 261 264 266 268 269 271 272 275 276 277 279 279 280 281 281 281 281 282 281 281 280 280 280 281 281 281 280 280 279 279 278 278 277 277 275 275
249 251 253 254 256 258 261 262 265 267 268 270 271 272 274 276 279 279 279 280 280 280 281 281 281 281 281 282 281 280 280 280 281 281 280 279 279 278 278 277 276 276 275
249 250 252 254 256 258 261 263 265 266 268 270 272 273 275 277 278 279 279 280 280 280 281 281 281 282 282 282 282 282 281 280 280 280 280 279 279 278 277 277 277 276 275
249 251 252 254 257 259 261 264 266 267 269 270 272 274 276 277 278 279 280 281 281 281 281 280 280 281 282 281 281 281 281 281 280 280 280 279 278 278 277 277 276 276 275
249 251 252 255 257 260 262 265 266 268 269 271 272 274 277 278 279 280 282 282 283 282 281 281 280 280 281 282 282 282 281 280 280 279 279 279 278 277 276 276 276 276 275
249 251 253 256 258 261 263 265 267 268 270 272 274 275 277 279 281 281 282 283 283 283 282 281 281 280 280 282 283 282 282 282 280 280 279 278 278 277 277 276 275 276 276
249 252 254 256 258 261 264 266 268 269 270 272 274 275 277 279 281 281 282 283 283 283 282 282 281 281 281 282 283 282 281 280 280 279 279 279 278 277 277 277 276 275 276
250 252 255 257 259 262 265 267 268 270 271 272 273 275 277 278 279 281 282 283 284 283 282 282 282 281 281 282 283 283 282 281 280 280 279 278 278 278 278 277 277 276 275
251 253 255 258 260 262 265 268 270 272 272 274 275 276 276 277 279 280 282 283 285 284 283 283 283 283 282 282 282 283 282 282 281 281 280 279 277 277 277 277 276 275 274
252 254 256 259 261 264 266 269 271 273 274 274 275 276 277 279 280 281 283 285 285 286 285 284 283 283 283 283 283 282 282 282 281 280 280 279 278 277 276 275 274 274 274
253 255 257 260 262 264 267 269 270 271 273 274 276 277 278 280 281 283 284 285 286 286 286 285 284 283 283 283 283 283 282 282 282 281 281 280 278 276 275 274 273 273 272
253 255 257 260 263 264 266 268 269 271 273 274 276 277 278 280 282 283 285 286 287 288 287 287 287 285 284 283 284 283 283 283 282 281 281 279 277 276 275 275 275 275 273
254 256 258 260 263 264 266 268 270 271 272 274 276 277 279 281 282 284 285 286 287 287 288 288 287 287 286 286 286 285 285 285 284 282 281 280 278 277 276 276 276 275 274
255 257 259 261 263 265 267 269 270 272 273 275 276 278 280 281 282 283 284 285 286 287 287 288 288 289 289 288 288 288 287 287 285 283 282 281 279 277 277 276 275 275 274
255 257 259 263 265 267 268 270 272 273 274 276 278 279 279 280 282 283 284 285 286 287 287 288 289 291 291 290 290 289 289 288 286 284 283 282 281 279 278 276 275 275 275
257 258 261 263 266 268 269 270 271 273 275 276 278 279 280 281 282 283 284 284 285 286 286 288 289 290 290 291 291 290 290 288 286 285 284 282 281 282 280 278 276 274 274
260 261 263 266 268 270 271 271 272 273 275 277 278 279 279 281 282 283 284 284 285 286 286 287 289 289 289 290 291 291 290 289 287 285 285 283 282 282 282 280 279 277 276
261 263 265 268 270 271 272 272 272 274 275 277 278 278 279 280 281 283 284 284 285 286 287 287 288 288 289 290 291 292 292 291 289 287 285 284 283 281 281 282 282 280 278
264 265 267 270 272 272 273 273 273 274 275 276 278 278 278 279 281 283 284 284 285 286 287 287 288 289 290 290 291 291 292 292 291 289 286 285 284 282 282 282 282 281 281